Regional Weather Roundup
Issued by NWS

Home | Current Version | Previous Version | Graphics & Text | Print | Product List | Glossary On
Versions: 1 2 3 4 5 6 7 8 9 10 11 12 13 14 15 16 17 18 19 20 21 22 23 24 25 26 27 28 29 30 31 32 33 34 35 36 37 38 39 40 41 42 43 44 45 46 47 48 49 50
000
ASUS43 KLSX 211407
RWRMO

WEATHER SUMMARY FOR MISSOURI
NATIONAL WEATHER SERVICE SPRINGFIELD MO
900 AM CDT MON AUG 21 2017

NOTE: "FAIR" INDICATES FEW OR NO CLOUDS BELOW 12,000 FEET WITH NO
       SIGNIFICANT WEATHER AND/OR OBSTRUCTIONS TO VISIBILITY.
       CURRENT SKY AND/OR WEATHER CONDITIONS ARE NOT AVAILABLE FOR
       CHILLICOTHE AND FARMINGTON.

MOZ001>031-035>038-043-044-053-054-211500-
...NORTHERN AND WESTERN MISSOURI...

CITY           SKY/WX    TMP DP  RH WIND       PRES   REMARKS
KANSAS CTY INT CLOUDY    80  74  81 S12       30.05F
KANSAS C DTWN  PTSUNNY   82  73  74 SW17      30.05F THUNDER
LEE`S SUMMIT   CLOUDY    79  73  82 SW15      30.08F
ST JOSEPH      LGT RAIN  77  73  87 E5        30.06F
CHILLICOTHE      N/A     75  69  81 E6        30.09F
KIRKSVILLE     PTSUNNY   75  68  78 NE7       30.11F

$$
MOZ066>068-077>081-088>096-101>105-211500-
...SOUTHWEST MISSOURI...

CITY           SKY/WX    TMP DP  RH WIND       PRES   REMARKS
SPRINGFIELD    SUNNY     78  75  90 S7        30.15R
JOPLIN         SUNNY     82  73  74 S12       30.11S
BRANSON        MOSUNNY   81  73  78 CALM      30.17R

$$
MOZ032>034-039>042-045>050-055>058-069>072-211500-
...CENTRAL MISSOURI...

CITY           SKY/WX    TMP DP  RH WIND       PRES   REMARKS
COLUMBIA       CLOUDY    78  73  84 S7        30.11F
JEFFERSON CITY CLOUDY    78  74  87 SE5       30.10F
ROLLA          SUNNY     80  74  81 SW12      30.15S
SEDALIA        SUNNY     81  75  82 SW12      30.10F
WHITEMAN AFB   CLOUDY    80  80  99 SW12      30.07F
WARRENSBURG    CLOUDY    77  70  78 S9        30.08F
OSAGE BEACH    CLOUDY    79  73  82 SW6       30.13

$$
MOZ051-052-059>065-211500-
...EAST CENTRAL MISSOURI...

CITY           SKY/WX    TMP DP  RH WIND       PRES   REMARKS
ST LOUIS INTL  MOSUNNY   82  74  76 W8        30.11S
SPIRIT OF STL  SUNNY     83  75  77 SW10      30.09S HX  90
ST CHARLES     MOSUNNY   79  74  84 CALM      30.09S

$$
MOZ072>076-082>087-097>100-106>115-211500-
...SOUTH CENTRAL AND SOUTHEAST MISSOURI...

CITY           SKY/WX    TMP DP  RH WIND       PRES   REMARKS
CAPE GIRARDEAU SUNNY     80  74  81 CALM      30.13S
FARMINGTON     SUNNY     80  75  84 CALM      30.15S
POPLAR BLUFF   SUNNY     80  76  87 CALM      30.13R
WEST PLAINS    SUNNY     80  73  79 CALM      30.18R

$$



USA.gov is the U.S. government's official web portal to all federal, state and local government web resources and services.